Location: Newark
(44.9000°N, 9.6000°E)
Time: 01:00:49
(UTC+00:00)

ISS - Pass Details

Date: 22 January 2020
Orbit: 416 x 422 km, 51.6° (Epoch: 21 February)

Event Time Altitude Azimuth Distance (km) Brightness Sun altitude
Rises 17:17:34 0° 216° (SW) 2,366 1.0 -11.1°
Reaches altitude 10° 17:19:46 10° 206° (SSW) 1,504 -0.3 -11.5°
Maximum altitude 17:22:51 33° 140° (SE) 725 -2.8 -12.0°
Enters shadow 17:24:34 20° 89° (E) 1,034 -2.4 -12.3°
